• In Germany
  • List of Countries
  • For 7 days
  • Water Temperature
  • Satellite Maps
  • Weather Map
  • Weather Widgets
  • user-avatar
    Login

    Hourly Weather Malye Azobichi

    Today, 26 September, Wednesday

    Time Temperature Precipitation Wind Pressure Humidity
    00:00 +2°C° 0 mm 3 mps 749 mmHg 86%
    01:00 +2°C° 0 mm 3 mps 750 mmHg 87%
    02:00 +2°C° 0 mm 2 mps 750 mmHg 92%
    03:00 +1°C° 0 mm 3 mps 750 mmHg 92%
    04:00 +1°C° 0 mm 3 mps 751 mmHg 91%
    05:00 0°C° 0 mm 3 mps 751 mmHg 90%
    06:00 +1°C° 0 mm 3 mps 752 mmHg 86%
    07:00 +2°C° 0 mm 3 mps 752 mmHg 81%
    08:00 +3°C° 0 mm 3 mps 753 mmHg 76%
    09:00 +5°C° 0 mm 4 mps 753 mmHg 71%
    10:00 +7°C° 0 mm 4 mps 753 mmHg 65%
    11:00 +10°C° 0 mm 4 mps 753 mmHg 60%
    12:00 +9°C° 0 mm 5 mps 753 mmHg 58%
    13:00 +10°C° 0 mm 5 mps 752 mmHg 55%
    14:00 +10°C° 0 mm 5 mps 752 mmHg 53%
    15:00 +10°C° 0 mm 5 mps 751 mmHg 57%
    16:00 +10°C° 0 mm 4 mps 751 mmHg 60%
    17:00 +8°C° 0 mm 4 mps 750 mmHg 64%
    18:00 +7°C° 0 mm 4 mps 750 mmHg 63%
    19:00 +7°C° 0 mm 5 mps 750 mmHg 61%
    20:00 +7°C° 0 mm 6 mps 749 mmHg 60%
    21:00 +7°C° 0.2 mm 6 mps 748 mmHg 63%
    22:00 +5°C° 0.2 mm 7 mps 747 mmHg 66%
    23:00 +5°C° 0.2 mm 8 mps 746 mmHg 68%

    Tomorrow, 27 September, Thursday

    Time Temperature Precipitation Wind Pressure Humidity
    00:00 +5°C° 0.4 mm 8 mps 745 mmHg 73%
    01:00 +5°C° 0.4 mm 9 mps 744 mmHg 77%
    02:00 +3°C° 0.4 mm 9 mps 743 mmHg 81%
    03:00 +5°C° 0.7 mm 9 mps 742 mmHg 84%
    04:00 +5°C° 0.7 mm 9 mps 742 mmHg 86%
    05:00 +5°C° 0.7 mm 9 mps 741 mmHg 88%
    06:00 +5°C° 0.4 mm 9 mps 741 mmHg 89%
    07:00 +6°C° 0.4 mm 8 mps 741 mmHg 89%
    08:00 +6°C° 0.4 mm 8 mps 741 mmHg 90%
    09:00 +8°C° 0.1 mm 7 mps 741 mmHg 87%
    10:00 +9°C° 0.1 mm 7 mps 741 mmHg 84%
    11:00 +10°C° 0.1 mm 7 mps 741 mmHg 81%
    12:00 +11°C° 0.1 mm 7 mps 741 mmHg 75%
    13:00 +12°C° 0.1 mm 7 mps 742 mmHg 68%
    14:00 +12°C° 0.1 mm 7 mps 742 mmHg 62%
    15:00 +13°C° 0 mm 6 mps 742 mmHg 65%
    16:00 +12°C° 0 mm 5 mps 742 mmHg 69%
    17:00 +11°C° 0 mm 4 mps 742 mmHg 72%
    18:00 +10°C° 0 mm 4 mps 743 mmHg 73%
    19:00 +10°C° 0 mm 4 mps 743 mmHg 75%
    20:00 +8°C° 0 mm 4 mps 743 mmHg 76%
    21:00 +7°C° 0 mm 4 mps 743 mmHg 78%
    22:00 +7°C° 0 mm 4 mps 744 mmHg 80%
    23:00 +6°C° 0 mm 4 mps 744 mmHg 82%

    Day after tomorrow, 28 September, Friday

    Time Temperature Precipitation Wind Pressure Humidity
    00:00 +6°C° 0 mm 4 mps 743 mmHg 85%
    01:00 +6°C° 0 mm 4 mps 743 mmHg 88%
    02:00 +6°C° 0 mm 5 mps 743 mmHg 91%
    03:00 +7°C° 0 mm 5 mps 742 mmHg 90%
    04:00 +7°C° 0 mm 6 mps 741 mmHg 89%
    05:00 +8°C° 0 mm 7 mps 740 mmHg 89%
    06:00 +9°C° 0 mm 7 mps 740 mmHg 88%
    07:00 +10°C° 0 mm 8 mps 739 mmHg 88%
    08:00 +10°C° 0 mm 8 mps 739 mmHg 88%
    09:00 +11°C° 0.1 mm 8 mps 739 mmHg 88%
    10:00 +11°C° 0.1 mm 8 mps 738 mmHg 87%
    11:00 +12°C° 0.1 mm 9 mps 738 mmHg 86%
    12:00 +12°C° 0.5 mm 8 mps 738 mmHg 86%
    13:00 +12°C° 0.5 mm 8 mps 738 mmHg 86%
    14:00 +12°C° 0.5 mm 8 mps 738 mmHg 86%
    15:00 +11°C° 0.2 mm 7 mps 738 mmHg 84%
    16:00 +10°C° 0.2 mm 6 mps 739 mmHg 82%
    17:00 +10°C° 0.2 mm 4 mps 740 mmHg 80%
    18:00 +8°C° 0 mm 4 mps 741 mmHg 83%
    19:00 +7°C° 0 mm 3 mps 741 mmHg 86%
    20:00 +6°C° 0 mm 2 mps 742 mmHg 89%
    21:00 +6°C° 0 mm 2 mps 743 mmHg 90%
    22:00 +6°C° 0 mm 1 mps 743 mmHg 91%
    23:00 +5°C° 0 mm 1 mps 744 mmHg 91%

    29 September, Saturday

    Time Temperature Precipitation Wind Pressure Humidity
    00:00 +5°C° 0 mm 1 mps 744 mmHg 91%
    01:00 +5°C° 0 mm 1 mps 745 mmHg 91%
    02:00 +5°C° 0 mm 1 mps 745 mmHg 91%
    03:00 +5°C° 0 mm 1 mps 745 mmHg 91%
    04:00 +5°C° 0 mm 1 mps 745 mmHg 91%
    05:00 +5°C° 0 mm 1 mps 746 mmHg 91%
    06:00 +6°C° 0 mm 1 mps 746 mmHg 88%
    07:00 +7°C° 0 mm 1 mps 746 mmHg 84%
    08:00 +8°C° 0 mm 1 mps 747 mmHg 81%
    09:00 +9°C° 0 mm 1 mps 747 mmHg 76%
    10:00 +10°C° 0 mm 1 mps 747 mmHg 71%
    11:00 +11°C° 0 mm 1 mps 748 mmHg 66%
    12:00 +11°C° 0.1 mm 1 mps 748 mmHg 67%
    13:00 +10°C° 0.1 mm 2 mps 748 mmHg 68%
    14:00 +10°C° 0.1 mm 2 mps 748 mmHg 68%
    15:00 +9°C° 0.1 mm 2 mps 748 mmHg 72%
    16:00 +9°C° 0.1 mm 1 mps 749 mmHg 75%
    17:00 +9°C° 0.1 mm 1 mps 749 mmHg 79%
    18:00 +8°C° 0 mm 1 mps 749 mmHg 81%
    19:00 +7°C° 0 mm 1 mps 750 mmHg 83%
    20:00 +5°C° 0 mm 2 mps 750 mmHg 85%
    21:00 +5°C° 0 mm 1 mps 751 mmHg 85%
    22:00 +5°C° 0 mm 1 mps 751 mmHg 85%
    23:00 +4°C° 0 mm 1 mps 751 mmHg 85%

    30 September, Sunday

    Time Temperature Precipitation Wind Pressure Humidity
    00:00 +4°C° 0 mm 1 mps 752 mmHg 84%
    01:00 +4°C° 0 mm 1 mps 752 mmHg 84%
    02:00 +3°C° 0 mm 1 mps 752 mmHg 84%
    03:00 +3°C° 0 mm 1 mps 752 mmHg 84%
    04:00 +2°C° 0 mm 0 mps 752 mmHg 84%
    05:00 +2°C° 0 mm 0 mps 752 mmHg 84%
    06:00 +3°C° 0 mm 0 mps 753 mmHg 80%
    07:00 +5°C° 0 mm 1 mps 753 mmHg 76%
    08:00 +6°C° 0 mm 1 mps 753 mmHg 73%
    09:00 +8°C° 0 mm 1 mps 753 mmHg 67%
    10:00 +8°C° 0 mm 2 mps 753 mmHg 62%
    11:00 +10°C° 0 mm 3 mps 753 mmHg 57%
    12:00 +10°C° 0 mm 3 mps 753 mmHg 55%
    13:00 +11°C° 0 mm 3 mps 752 mmHg 53%
    14:00 +11°C° 0 mm 4 mps 752 mmHg 52%
    15:00 +10°C° 0 mm 3 mps 752 mmHg 58%
    16:00 +9°C° 0 mm 3 mps 752 mmHg 63%
    17:00 +8°C° 0 mm 2 mps 751 mmHg 69%
    18:00 +7°C° 0 mm 2 mps 751 mmHg 72%
    19:00 +6°C° 0 mm 2 mps 751 mmHg 75%
    20:00 +5°C° 0 mm 2 mps 751 mmHg 78%
    21:00 +5°C° 0 mm 2 mps 751 mmHg 79%
    22:00 +4°C° 0 mm 2 mps 751 mmHg 80%
    23:00 +4°C° 0 mm 2 mps 751 mmHg 81%

    1 October, Monday

    Time Temperature Precipitation Wind Pressure Humidity
    00:00 +4°C° 0 mm 2 mps 751 mmHg 81%
    01:00 +4°C° 0 mm 2 mps 751 mmHg 82%
    02:00 +3°C° 0 mm 2 mps 751 mmHg 83%
    03:00 +3°C° 0 mm 2 mps 751 mmHg 84%
    04:00 +3°C° 0 mm 2 mps 751 mmHg 84%
    05:00 +3°C° 0 mm 2 mps 751 mmHg 85%
    06:00 +4°C° 0 mm 2 mps 751 mmHg 81%
    07:00 +5°C° 0 mm 2 mps 751 mmHg 76%
    08:00 +5°C° 0 mm 3 mps 751 mmHg 72%
    09:00 +8°C° 0 mm 3 mps 751 mmHg 66%
    10:00 +9°C° 0 mm 3 mps 750 mmHg 60%
    11:00 +11°C° 0 mm 3 mps 750 mmHg 55%
    12:00 +12°C° 0 mm 3 mps 750 mmHg 54%
    13:00 +12°C° 0 mm 3 mps 750 mmHg 52%
    14:00 +13°C° 0 mm 3 mps 749 mmHg 51%
    15:00 +11°C° 0 mm 3 mps 749 mmHg 57%
    16:00 +10°C° 0 mm 2 mps 749 mmHg 62%
    17:00 +9°C° 0 mm 2 mps 748 mmHg 68%
    18:00 +8°C° 0 mm 2 mps 748 mmHg 70%
    19:00 +7°C° 0 mm 2 mps 748 mmHg 73%
    20:00 +6°C° 0 mm 2 mps 748 mmHg 75%
    21:00 +6°C° 0 mm 2 mps 748 mmHg 76%
    22:00 +5°C° 0 mm 2 mps 748 mmHg 78%
    23:00 +5°C° 0 mm 2 mps 748 mmHg 79%
    Show more